Weather Roundup
Issued by NWS

Home | Current Version | Previous Version | Graphics & Text | Print | Product List | Glossary Off
Versions: 1 2 3 4 5 6 7 8 9 10 11 12 13 14 15 16 17 18 19 20 21 22 23 24 25 26 27 28 29 30 31 32 33 34 35 36 37 38 39 40 41 42 43 44 45 46 47 48 49 50

000
NZUS93 KARX 311459
HRRWXR

CURRENT HOURLY OBSERVATIONS ACROSS
MUCH OF THE UPPER MISSISSIPPI VALLEY
NATIONAL WEATHER SERVICE LA CROSSE WI
1000 AM CDT WED AUG 31 2016


...SOUTHEAST MINNESOTA...


CITY           SKY/WX    TMP DP  RH WIND       PRES   REMARKS
ROCHESTER      SUNNY     69  58  67 N6        30.21S
ROCHESTER/MAYO FAIR      66  56  69 NW3       30.21S
WINONA         SUNNY     66  59  77 CALM      30.19S
AUSTIN         SUNNY     68  57  68 N3        30.20S
ALBERT LEA     SUNNY     66  59  77 CALM      30.21S
DODGE CENTER   SUNNY     70  57  64 N5        30.21S
PRESTON        SUNNY     66  55  66 N6        30.20R
OWATONNA       SUNNY     66  55  68 N3        30.22R
FARIBAULT      SUNNY     68  59  73 CALM      30.22S
$$

...ELSEWHERE IN MINNESOTA...


CITY           SKY/WX    TMP DP  RH WIND       PRES   REMARKS
MINNEAPOLIS    MOSUNNY   70  54  56 NW6       30.22R
INTNL FALLS    MOSUNNY   64  56  75 N6        30.24S
DULUTH         SUNNY     67  53  61 NW7       30.22R
RED WING       SUNNY     68  61  77 W5        30.19S
REDWOOD FALLS  SUNNY     68  57  68 CALM      30.23S
MANKATO        SUNNY     68  58  70 N3        30.22
WORTHINGTON    SUNNY     69  59  70 NE3       30.25S
FAIRMONT       SUNNY     67  61  81 VRB5      30.23R
$$

...SOUTHWEST WISCONSIN...


CITY           SKY/WX    TMP DP  RH WIND       PRES   REMARKS
LA CROSSE      SUNNY     68  60  75 NW7       30.17S
PRAIRIE DU CHI SUNNY     68  53  58 CALM      30.15R
BOSCOBEL       SUNNY     70  57  63 NE5       30.16R
LONE ROCK      NOT AVBL
PLATTEVILLE    CLOUDY    64  64 100 NE6       30.14S
FORT MC COY    SUNNY     62  57  84 N3        30.18S
MAUSTON-NEW LI SUNNY     65  58  78 NW5       30.16S
VIROQUA        FAIR      67  56  66 N7        30.18R
WIS DELLS      NOT AVBL
$$

...ELSEWHERE IN WISCONSIN...


CITY           SKY/WX    TMP DP  RH WIND       PRES   REMARKS
MILWAUKEE      MOSUNNY   71  59  65 N13       30.10R
MADISON        MOSUNNY   69  60  73 N8        30.13S
GREEN BAY      SUNNY     67  58  72 N3        30.14R
EAU CLAIRE     NOT AVBL
BLACK RVR FLS  FAIR      64  56  75 CALM      30.18S
MEDFORD        SUNNY     64  58  80 N3        30.19R
WAUSAU         SUNNY     65  55  70 N6        30.16S
WIS RAPIDS     SUNNY     68  56  65 NW5       30.18S
MARSHFIELD     SUNNY     69  54  58 NE3       30.17S
RICE LAKE      SUNNY     64  56  76 CALM      30.22R
$$

...NORTHEAST IOWA...


CITY           SKY/WX    TMP DP  RH WIND       PRES   REMARKS
WATERLOO       SUNNY     71  57  61 NE9       30.16R
DUBUQUE        CLOUDY    65  61  87 NE8       30.15R
DECORAH        SUNNY     68  57  68 NE6       30.17S
MASON CITY     SUNNY     68  59  73 N5        30.22R
CHARLES CITY   SUNNY     68  61  77 VRB5      30.20R
OELWEIN        SUNNY     70  57  64 NE8       30.18R
$$

...ELSEWHERE IN IOWA...


CITY           SKY/WX    TMP DP  RH WIND       PRES   REMARKS
DES MOINES     PTSUNNY   73  59  61 N9        30.17R
IOWA CITY      CLOUDY    72  61  68 N8        30.14R
FORT DODGE     SUNNY     68  61  77 N5        30.21S
MARSHALLTOWN   SUNNY     70  61  73 N6        30.17R
CEDAR RAPIDS   MOSUNNY   72  62  71 N6        30.13S
$$

...NORTHERN ILLINOIS...


CITY           SKY/WX    TMP DP  RH WIND       PRES   REMARKS
CHICAGO-OHARE  PTSUNNY   73  62  68 N13G21    30.06S
CHICAGO-MIDWAY PTSUNNY   75  62  64 N15       30.06R
MOLINE         CLOUDY    72  64  76 NE7       30.10S
ROCKFORD       PTSUNNY   73  60  63 N10       30.11S
PEORIA         CLOUDY    72  72 100 N5        30.07S
$$

NOTE: "FAIR" INDICATES FEW OR NO CLOUDS BELOW 12,000 FEET WITH NO
SIGNIFICANT WEATHER AND/OR OBSTRUCTIONS TO VISIBILITY. WIND
SPEEDS ARE IN MILES-PER-HOUR.




USA.gov is the U.S. government's official web portal to all federal, state and local government web resources and services.